GSAT 6

导读 | 豆包AI

GSAT 6是印度空间研究组织(ISRO)研制的静止轨道通信卫星,于2015年8月27日成功发射。该卫星配备了S波段大型可展开天线,主要面向军事移动通信与民生通信服务,支持手持终端通信,可提升印度偏远区域的通信覆盖能力。作为印度国产GSAT系列通信卫星的重要成员,其设计寿命约9年,体现了印度自主发展航天通信技术的成果,增强了印度本土卫星通信的自主可控能力,为区域应急通信和战略通信提供支撑。

基本信息
目录编号:
40880
目录名称:
GSAT 6
国际标识:
2015-041A
轨道中心:
EARTH
卫星名称:
GSAT 6
卫星全名:
--
卫星状态:
在轨 (已飞行3842 天)
发射日期:
2015-08-27 UTC
国别 :
印度 (IN)
星等 :
--
轨道信息
数据来源 国际轨道数据 AOE轨道数据
星历时间 2026-03-04T10:26:54+0800
7小时前
查看轨道信息
2026-03-04T07:00:00+0800
10小时前
查看轨道信息
半长轴 42166.354km 42164.924km
偏心率 0.0002704 0.0003319
轨道倾角 1.647° 1.647°
近地点辐角 262.772° 266.000°
升交点赤经 83.975° 83.993°
平近点角 294.284° 239.176°
近地点 35776.815km 35772.792km
远地点 35799.619km 35800.782km
周期 1436.180分钟 1436.107分钟
每日圈数 1.00266 1.002711
详细信息
使用方式:
暂无
2D轨道图
3D轨道图
轨道高度分析图
轨道倾角分析图
轨道综合分析图
查看轨道综合分析图